Weather History for Abbotsford, BC

Change the Weather History Date:

Tuesday, March 11, 2014

  Actual Average Record
Temperature  
Mean Temperature 44 °F -  
Max Temperature 55 °F 54 °F 60 °F (1998)
Min Temperature 32 °F 36 °F 21 °F (2009)
Degree Days  
Heating Degree Days 22    
Moisture  
Dew Point 36 °F    
Average Humidity 76    
Maximum Humidity 100    
Minimum Humidity 34    
Precipitation  
Precipitation 0.00 in 0.17 in - ()
Sea Level Pressure  
Sea Level Pressure 30.54 in    
Wind  
Wind Speed 3 mph ()    
Max Wind Speed 7 mph    
Max Gust Speed -    
Visibility 15.0 miles    
Events Fog    
Averages and records for this station are not official NWS values.
T = Trace of Precipitation, MM = Missing Value Source: Averaged Metar Reports

Daily Weather History Graph

Daily Weather History Graph

Search for Another Location

Airport:

Trip Planner

Search our weather history database for the weather conditions in past years. The results will help you decide how hot, cold, wet, or windy it might be!

Date:

Astronomy

Mar. 11, 2014 Rise Set
Actual Time 7:30 AM PDT 7:08 PM PDT
Civil Twilight 6:59 AM PDT 7:40 PM PDT
Nautical Twilight 6:22 AM PDT 8:17 PM PDT
Astronomical Twilight 5:45 AM PDT 8:54 PM PDT
Moon 2:32 PM PDT (3/11) 4:46 AM PDT (3/11)
Length of Visible Light 12h 40m
Length of Day
11h 37m
Waxing Gibbous, 79% of the Moon is Illuminated
Mar 11
Waxing Gibbous
Mar 16
Full
Mar 23
Last Quarter
Mar 30
New
Apr 7
First Quarter

Hourly Weather History & Observations

Time (PDT) Temp. Windchill Dew Point Humidity Pressure Visibility Wind Dir Wind Speed Gust Speed Precip Events Conditions
12:00 AM 41.0 °F - 37.4 °F 87% 30.44 in 15.0 mi Calm Calm - N/A   Scattered Clouds
1:00 AM 39.2 °F 37.0 °F 35.6 °F 87% 30.45 in 15.0 mi North 3.5 mph - N/A   Partly Cloudy
2:00 AM 35.6 °F - 35.6 °F 100% 30.49 in 15.0 mi Calm Calm - N/A   Partly Cloudy
3:00 AM 35.6 °F - 33.8 °F 93% 30.51 in 15.0 mi East 2.3 mph - N/A   Partly Cloudy
4:00 AM 35.6 °F - 35.6 °F 100% 30.52 in 15.0 mi North 2.3 mph - N/A   Partly Cloudy
5:00 AM 35 °F - 35 °F 100% 30.55 in 15 mi NW 3.5 mph - -  
5:00 AM 35.6 °F 32.8 °F 35.6 °F 100% 30.55 in 15.0 mi NW 3.5 mph - N/A   Clear
6:00 AM 33.8 °F 30.8 °F 32.0 °F 93% 30.56 in 15.0 mi WNW 3.5 mph - N/A   Mostly Cloudy
7:00 AM 33.8 °F - 33.8 °F 100% 30.58 in 25.0 mi NNE 2.3 mph - N/A   Mostly Cloudy
8:00 AM 33.8 °F - 33.8 °F 100% 30.59 in 25.0 mi NNW 2.3 mph - N/A Fog Shallow Fog
9:00 AM 39.2 °F - 39.2 °F 100% 30.60 in 25.0 mi Calm Calm - N/A   Mostly Cloudy
10:00 AM 44.6 °F 42.2 °F 41.0 °F 87% 30.61 in 25.0 mi NNE 4.6 mph - N/A   Mostly Cloudy
11:00 AM 47 °F - 40 °F 70% 30.60 in 28 mi NNE 3.5 mph - -   Scattered Clouds
11:00 AM 46.4 °F 45.2 °F 41.0 °F 81% 30.60 in 30.0 mi North 3.5 mph - N/A   Scattered Clouds
12:00 PM 50.0 °F - 39.2 °F 66% 30.60 in 30.0 mi NNW 3.5 mph - N/A   Scattered Clouds
1:00 PM 51.8 °F - 37.4 °F 58% 30.58 in 30.0 mi West 3.5 mph - N/A   Scattered Clouds
2:00 PM 53.6 °F - 37.4 °F 54% 30.56 in 30.0 mi NE 3.5 mph - N/A   Mostly Cloudy
3:00 PM 51.8 °F - 37.4 °F 58% 30.55 in 30.0 mi North - - N/A   Mostly Cloudy
4:00 PM 55.4 °F - 35.6 °F 47% 30.54 in 30.0 mi West 5.8 mph - N/A   Scattered Clouds
5:00 PM 55 °F - 35 °F 34% 30.53 in 28 mi WSW 4.6 mph - -   Scattered Clouds
5:00 PM 55.4 °F - 35.6 °F 47% 30.52 in 30.0 mi West 6.9 mph - N/A   Scattered Clouds
6:00 PM 53.6 °F - 33.8 °F 47% 30.51 in 30.0 mi WSW 2.3 mph - N/A   Scattered Clouds
7:00 PM 50.0 °F - 37.4 °F 62% 30.50 in 30.0 mi SW 6.9 mph - N/A   Mostly Cloudy
8:00 PM 48.2 °F - 37.4 °F 66% 30.51 in 15.0 mi WNW 3.5 mph - N/A   Scattered Clouds
9:00 PM 46.4 °F 45.2 °F 35.6 °F 66% 30.50 in 15.0 mi NNW 3.5 mph - N/A   Partly Cloudy
10:00 PM 42.8 °F 40.1 °F 35.6 °F 76% 30.49 in 15.0 mi NNE 4.6 mph - N/A   Partly Cloudy
11:00 PM 41 °F - 36 °F 75% 30.49 in 15 mi NNE 4.6 mph - -  
11:00 PM 41.0 °F 39.0 °F 35.6 °F 81% 30.49 in 15.0 mi NNE 3.5 mph - N/A   Clear